Regional Weather Roundup
Issued by NWS

Home | Current Version | Previous Version | Graphics & Text | Print | Product List | Glossary On
Versions: 1 2 3 4 5 6 7 8 9 10 11 12 13 14 15 16 17 18 19 20 21 22 23 24 25 26 27 28 29 30 31 32 33 34 35 36 37 38 39 40 41 42 43 44 45 46 47 48 49 50
000
ASUS43 KDTX 021110
RWRMI
MICHIGAN HOURLY REGIONAL WEATHER ROUNDUP
NATIONAL WEATHER SERVICE DETROIT/PONTIAC MI
700 AM EDT THU JUL 02 2015

NOTE: "FAIR" INDICATES FEW OR NO CLOUDS BELOW 12,000 FEET WITH NO
SIGNIFICANT WEATHER AND/OR OBSTRUCTION TO VISIBILITY.

MIZ047>049-052>055-059>063-066>070-074>076-081>083-021200-
SOUTHEAST LOWER MICHIGAN

CITY           SKY/WX    TMP DP  RH WIND       PRES   REMARKS
ADRIAN         MOCLDY    58  56  93 NE3       29.98R
ALMA           CLOUDY    55  53  90 N7        30.02S
ANN ARBOR      CLOUDY    56  54  93 NE3       29.98R FOG
BAD AXE        CLEAR     50  50  98 CALM      30.01S
CARO           CLEAR     53  52  97 N3        30.00S
DETROIT CITY   CLEAR     58  54  86 N5        29.98S
DETROIT        CLOUDY    59  56  89 N6        29.98R
FLINT          CLOUDY    61  55  81 NE5       29.99S
GROSSE ILE     PTCLDY    61  55  82 NE7       29.96S
HILLSDALE      FOG       56  56 100 E6        29.97F VSB 1
HOWELL         CLOUDY    56  56  99 CALM      29.99S FOG

CITY           SKY/WX    TMP DP  RH WIND       PRES   REMARKS
JACKSON        FOG       55  55 100 NE3       29.98S VSB 1/4
LAMBERTVILLE   CLOUDY    60  58  90 NE6       29.97R FOG
LANSING        CLOUDY    57  54  89 N6        30.00S
LAPEER         CLOUDY    56  54  93 NE3       30.00S
MASON          CLOUDY    54  53  97 CALM      29.99S FOG
MONROE         PTCLDY    58  57  96 CALM      29.96S FOG
MT. CLEMENS    MOCLDY    59  55  88 N7        29.97R
PONTIAC        MOCLDY    58  54  86 NE8       29.98S
PORT HOPE        N/A     57  53  86 VRB3      29.99S
PORT HURON     CLOUDY    57  55  94 N3        30.00R
TRI CITIES     CLOUDY    58  51  78 N8        30.02S
MIDLAND        CLOUDY    55  52  92 CALM      30.02S
TROY           PTCLDY    60  56  85 NE7       30.00S
SAGINAW HB     CLOUDY    59  59 100 W3        30.00F
$$
MIZ043>046-050>051-056>058-064>065-071>073-077>080-021200-
SOUTHWEST LOWER MICHIGAN

CITY           SKY/WX    TMP DP  RH WIND       PRES   REMARKS
BATTLE CREEK   CLOUDY    56  54  93 NE7       29.98S FOG
BENTON HARBOR  CLEAR     51  50  96 NE3       29.97S
BIG RAPIDS     CLEAR     48  45  89 CALM      30.02S
COLDWATER      CLEAR     54  54  99 NE5       29.97S FOG
FREMONT        FAIR      50  49  95 NE6       30.01S
HOLLAND        CLEAR     54  51  90 VRB5      30.00S
GRAND RAPIDS   MOCLDY    53  51  93 NE8       29.99F
IONIA          FAIR      54  52  95 NE8       29.99F
KALAMAZOO      MOCLDY    55  52  89 NE5       29.98S FOG
LUDINGTON      CLEAR     44  42  93 CALM      30.04R
MARSHALL       CLEAR     53  52  96 CALM      29.97S FOG
MOUNT PLEASANT CLOUDY    53  49  89 N3        30.02S
MUSKEGON       PTCLDY    53  49  86 NE7       30.01S
SOUTH HAVEN    CLEAR     51  50  95 E3        29.98S
$$
MIZ016>042-021200-
NORTHERN LOWER MICHIGAN

CITY           SKY/WX    TMP DP  RH WIND       PRES   REMARKS
ALPENA         CLEAR     48  45  89 CALM      30.03R
BEAVER ISLAND  CLEAR     42  41  97 CALM      30.04F
BELLAIRE       CLOUDY    41  40  96 CALM      30.05S FOG
CADILLAC       CLEAR     43  42  95 CALM      30.03S
CHARLEVOIX     CLEAR     47  47  98 CALM      30.07S
FRANKFORT      CLEAR     42  36  80 CALM      30.05R
GAYLORD        CLEAR     45  44  97 CALM      30.05R
GRAYLING       CLEAR     41  40  99 CALM      30.05R
HARBOR SPRINGS CLEAR     46  44  93 CALM      30.05R
HOUGHTON LAKE  CLEAR     48  44  86 NE7       30.04R
MANISTEE       CLEAR     41  37  87 CALM      30.05R
OSCODA         CLEAR     49  47  94 CALM      30.02R
PELLSTON       CLEAR     44  42  93 CALM      30.05R
ROGERS CITY    CLEAR     50  49  95 CALM      30.05R
TRAVERSE CITY  CLEAR     45  44  97 CALM      30.04R
$$
MIZ007>008-015-021200-
EASTERN UPPER MICHIGAN

CITY           SKY/WX    TMP DP  RH WIND       PRES   REMARKS
KINROSS        CLEAR     43  41  93 CALM      30.04R
MACKINAC ISLAN CLEAR     49  48  95 CALM      30.04R
NEWBERRY       CLOUDY    51  42  71 NW5       30.05R
S. S. MARIE    CLEAR     48  44  86 CALM      30.03R
MUNISING         N/A     49  44  83 S3        30.05R
$$
MIZ004>006-011>014-085-021200-
CENTRAL UPPER MICHIGAN

CITY           SKY/WX    TMP DP  RH WIND       PRES   REMARKS
MANISTIQUE     CLOUDY    46  43  89 CALM      30.05R
ESCANABA       CLEAR     43  37  81 NW3       30.06R
MENOMINEE      CLEAR     46  41  81 CALM      30.07R
SAWYER-GWINN   MOCLDY    46  43  87 CALM      30.06R
$$
MIZ001>003-009>011-084-021200-
WESTERN UPPER MICHIGAN

CITY           SKY/WX    TMP DP  RH WIND       PRES   REMARKS
IRON MOUNTAIN  CLEAR     43  41  93 CALM      30.07R
HOUGHTON       CLOUDY    53  48  83 CALM      30.03R
COPPER HARBOR    N/A     57  44  62 SW8       30.01R
IRONWOOD       CLEAR     54  48  82 SW6       30.02S
$$

ABBREVIATIONS USED IN REMARKS
   TC - TEMPERATURE IN CELSIUS
  WCI - WIND CHILL INDEX
   HX - HEAT INDEX
  VSB - VISIBILITY




USA.gov is the U.S. government's official web portal to all federal, state and local government web resources and services.